Date String (YYYY-MM-DD hh:mm:ss) UTC,Instrument flags,Ambient pressure (hPa),Sample flow (lpm),Bypass flow (lpm),Sample temperature (°C),Ambient temperature (°C),ASC tube jacket temperature (°C),LED temperature (°C),Box temperature (°C),Sample RH (%),Span deviation,Mass concentration (μg/m³),Mass concentration (μg/m³),Mass concentration (μg/m³)
DateTimeUTC,F1_M11,P_M11,Q1_M11,Q2_M11,T1_M11,T2_M11,T3_M11,T4_M11,T5_M11,U1_M11,ZSPAN_M11,X0_M11,X2_M11,X1_M11
2022-01-03 18:00:00,,0825.7,4.99,0.00,23.4,22.8,00.0,32.2,25.1,08.7,0000.0,0000.21,0000.04,0000.00
2022-01-03 18:01:00,,0825.7,5.01,0.00,23.4,22.8,00.0,32.2,25.1,08.8,0000.0,0000.30,0000.05,0000.00
2022-01-03 18:02:00,,0825.9,4.99,0.00,23.4,22.8,00.0,32.2,25.1,07.6,0000.0,0000.30,0000.05,0000.00
2022-01-03 18:03:00,,0825.9,4.99,0.00,23.4,22.8,00.0,32.2,25.1,07.0,0000.0,0000.30,0000.05,0000.00
2022-01-03 18:04:00,,0826.0,5.00,0.00,23.4,22.8,00.0,32.3,25.1,06.6,0000.0,0000.23,0000.04,0000.00
2022-01-03 18:05:00,,0825.7,5.01,0.00,23.4,22.8,00.0,32.3,25.1,07.4,0000.0,0000.19,0000.03,0000.00
2022-01-03 18:06:00,,0825.6,5.00,0.00,23.4,22.8,00.0,32.3,25.2,07.6,0000.0,0000.18,0000.03,0000.00
2022-01-03 18:07:00,,0825.6,5.01,0.00,23.4,22.8,00.0,32.3,25.2,07.6,0000.0,0000.18,0000.03,0000.00
2022-01-03 18:08:00,,0825.6,5.00,0.00,23.4,22.8,00.0,32.3,25.2,08.8,0000.0,0000.13,0000.02,0000.00
2022-01-03 18:09:00,,0825.6,5.00,0.00,23.5,22.9,00.0,32.3,25.2,08.8,0000.0,0000.09,0000.02,0000.00
2022-01-03 18:10:00,,0825.6,5.00,0.00,23.4,22.9,00.0,32.3,25.2,08.1,0000.0,0000.16,0000.02,0000.00
2022-01-03 18:11:00,,0825.6,5.00,0.00,23.5,22.9,00.0,32.3,25.2,08.8,0000.0,0001.05,0000.03,0000.00
2022-01-03 18:12:00,,0825.5,5.00,0.00,23.5,22.9,00.0,32.3,25.2,08.3,0000.0,0001.52,0000.02,0000.00
2022-01-03 18:13:00,,0825.5,5.00,0.00,23.5,22.9,00.0,32.3,25.2,07.4,0000.0,0001.52,0000.02,0000.00
2022-01-03 18:14:00,,0825.4,5.01,0.00,23.5,22.9,00.0,32.4,25.2,08.4,0000.0,0001.53,0000.02,0000.00
2022-01-03 18:15:00,,0825.4,4.99,0.00,23.5,22.9,00.0,32.4,25.2,09.4,0000.0,0001.55,0000.04,0000.01
2022-01-03 18:16:00,,0825.5,5.00,0.00,23.5,22.9,00.0,32.4,25.2,09.2,0000.0,0001.55,0000.04,0000.01
2022-01-03 18:17:00,,0825.4,5.01,0.00,23.5,22.9,00.0,32.4,25.2,08.7,0000.0,0001.55,0000.04,0000.00
2022-01-03 18:18:00,,0825.3,4.99,0.00,23.5,22.9,00.0,32.4,25.2,09.7,0000.0,0001.60,0000.04,0000.00
2022-01-03 18:19:00,,0825.4,5.00,0.00,23.5,22.8,00.0,32.4,25.2,08.4,0000.0,0001.66,0000.04,0000.00
2022-01-03 18:20:00,,0825.4,5.01,0.00,23.5,22.8,00.0,32.4,25.2,08.9,0000.0,0001.66,0000.04,0000.00
2022-01-03 18:21:00,,0825.4,4.99,0.00,23.4,22.8,00.0,32.4,25.2,09.5,0000.0,0001.61,0000.04,0000.00
2022-01-03 18:22:00,,0825.3,4.99,0.00,23.5,22.8,00.0,32.4,25.2,09.8,0000.0,0000.94,0000.03,0000.00
2022-01-03 18:23:00,,0825.3,5.01,0.00,23.5,22.8,00.0,32.4,25.2,08.9,0000.0,0000.15,0000.03,0000.00
2022-01-03 18:24:00,,0825.4,4.99,0.00,23.5,22.9,00.0,32.4,25.2,08.7,0000.0,0001.22,0000.03,0000.00
2022-01-03 18:25:00,,0825.4,5.02,0.00,23.5,22.9,00.0,32.4,25.2,09.6,0000.0,0001.49,0000.02,0000.00
2022-01-03 18:26:00,,0825.3,4.99,0.00,23.5,22.9,00.0,32.4,25.2,09.8,0000.0,0001.46,0000.01,0000.00
2022-01-03 18:27:00,,0825.3,4.99,0.00,23.5,22.9,00.0,32.4,25.3,10.0,0000.0,0001.46,0000.01,0000.00
2022-01-03 18:28:00,,0825.3,5.00,0.00,23.5,22.9,00.0,32.4,25.3,10.1,0000.0,0001.46,0000.01,0000.00
2022-01-03 18:29:00,,0825.3,5.01,0.00,23.5,22.9,00.0,32.4,25.3,10.0,0000.0,0001.41,0000.01,0000.00
2022-01-03 18:30:00,,0825.3,4.98,0.00,23.5,23.0,00.0,32.4,25.3,10.0,0000.0,0001.35,0000.00,0000.00
2022-01-03 18:31:00,,0825.3,5.01,0.00,23.5,23.0,00.0,32.4,25.3,10.1,0000.0,0001.39,0000.02,0000.00
2022-01-03 18:32:00,,0825.3,4.99,0.00,23.5,23.0,00.0,32.4,25.3,10.0,0000.0,0001.41,0000.03,0000.00
2022-01-03 18:33:00,,0825.3,5.00,0.00,23.6,23.0,00.0,32.5,25.3,09.6,0000.0,0001.42,0000.03,0000.00
2022-01-03 18:34:00,,0825.2,5.01,0.00,23.6,23.0,00.0,32.5,25.3,09.7,0000.0,0001.68,0000.05,0000.00
2022-01-03 18:35:00,,0825.2,5.01,0.00,23.6,23.0,00.0,32.5,25.3,09.2,0000.0,0001.09,0000.06,0000.00
2022-01-03 18:36:00,,0825.2,4.99,0.00,23.6,23.0,00.0,32.5,25.3,07.7,0000.0,0000.69,0000.06,0000.00
2022-01-03 18:37:00,,0825.2,5.01,0.00,23.6,23.0,00.0,32.5,25.3,09.1,0000.0,0000.69,0000.06,0000.00
2022-01-03 18:38:00,,0825.2,4.99,0.00,23.6,23.0,00.0,32.5,25.4,08.9,0000.0,0000.69,0000.06,0000.00
2022-01-03 18:39:00,,0825.1,5.01,0.00,23.6,23.0,00.0,32.5,25.4,07.9,0000.0,0000.69,0000.06,0000.00
2022-01-03 18:40:00,,0825.1,4.99,0.00,23.6,23.0,00.0,32.5,25.4,09.5,0000.0,0000.69,0000.06,0000.00
2022-01-03 18:41:00,,0825.1,5.02,0.00,23.6,23.1,00.0,32.5,25.4,08.6,0000.0,0000.71,0000.07,0000.00
2022-01-03 18:42:00,,0825.1,5.01,0.00,23.6,23.1,00.0,32.5,25.4,07.9,0000.0,0000.68,0000.07,0000.00
2022-01-03 18:43:00,,0825.1,5.00,0.00,23.6,23.1,00.0,32.5,25.4,08.0,0000.0,0000.65,0000.05,0000.00
2022-01-03 18:44:00,,0825.1,5.00,0.00,23.6,23.0,00.0,32.5,25.4,08.0,0000.0,0000.64,0000.04,0000.00
2022-01-03 18:45:00,,0825.0,5.00,0.00,23.6,22.9,00.0,32.5,25.4,08.0,0000.0,0000.45,0000.03,0000.00
2022-01-03 18:46:00,,0825.0,5.00,0.00,23.6,22.9,00.0,32.5,25.3,08.8,0000.0,0000.03,0000.02,0000.00
2022-01-03 18:47:00,,0825.1,4.99,0.00,23.6,22.9,00.0,32.5,25.3,08.5,0000.0,0000.03,0000.02,0000.00
2022-01-03 18:48:00,,0825.0,5.00,0.00,23.6,22.9,00.0,32.5,25.3,08.8,0000.0,0000.03,0000.02,0000.00
2022-01-03 18:49:00,,0825.0,5.01,0.00,23.5,22.9,00.0,32.5,25.3,08.6,0000.0,0000.03,0000.02,0000.00
2022-01-03 18:50:00,,0824.9,5.00,0.00,23.5,22.8,00.0,32.5,25.3,08.6,0000.0,0000.03,0000.02,0000.00
2022-01-03 18:51:00,,0824.9,5.00,0.00,23.5,22.8,00.0,32.5,25.3,08.5,0000.0,0000.03,0000.02,0000.00
2022-01-03 18:52:00,,0824.8,4.99,0.00,23.5,22.8,00.0,32.5,25.2,09.1,0000.0,0000.00,0000.00,0000.00
2022-01-03 18:53:00,,0824.9,5.01,0.00,23.5,22.9,00.0,32.5,25.3,09.4,0000.0,0000.00,0000.00,0000.00
2022-01-03 18:54:00,,0824.9,4.99,0.00,23.5,22.9,00.0,32.5,25.3,10.1,0000.0,0000.08,0000.01,0000.00
2022-01-03 18:55:00,,0824.9,5.00,0.00,23.6,22.9,00.0,32.5,25.3,10.7,0000.0,0000.13,0000.02,0000.00
2022-01-03 18:56:00,,0824.9,5.01,0.00,23.6,23.0,00.0,32.5,25.3,11.0,0000.0,0000.15,0000.03,0000.00
2022-01-03 18:57:00,,0824.9,4.99,0.00,23.6,23.0,00.0,32.5,25.3,10.6,0000.0,0000.16,0000.04,0000.00
2022-01-03 18:58:00,,0824.9,5.01,0.00,23.6,23.1,00.0,32.5,25.4,10.4,0000.0,0000.16,0000.04,0000.00
2022-01-03 18:59:00,,0824.9,5.00,0.00,23.7,23.1,00.0,32.5,25.5,09.6,0000.0,0000.16,0000.04,0000.00
